Regional Weather Roundup
Issued by NWS

Home | Current Version | Previous Version | Text Only | Print | Product List | Glossary Off
Versions: 1 2 3 4 5 6 7 8 9 10 11 12 13 14 15 16 17 18 19 20 21 22 23 24 25 26 27 28 29 30 31 32 33 34 35 36 37 38 39 40 41 42 43 44 45 46 47 48 49 50

000
ASUS43 KLMK 232110
RWRKY
KENTUCKY REGIONAL WEATHER ROUNDUP
NATIONAL WEATHER SERVICE LOUISVILLE KY
500 PM EDT WED JUL 23 2014

NOTE "FAIR" INDICATES FEW OR NO CLOUDS BELOW 12,000 FEET
WITH NO SIGNIFICANT WEATHER AND/OR OBSTRUCTIONS TO VISIBILITY.

KYZ001>023-026-027-061>063-070>075-232200-
WESTERN AND SOUTH CENTRAL KENTUCKY

CITY           SKY/WX    TMP DP  RH WIND       PRES   REMARKS
PADUCAH        CLOUDY    75  68  78 NE3       29.98R
HENDERSON      CLOUDY    81  70  69 NW8       29.99S
OWENSBORO      CLOUDY    82  69  64 NW10      29.99F
HOPKINSVILLE   PTSUNNY   89  71  54 W8        29.96F HX  94
BOWLING GREEN  PTSUNNY   89  69  51 W13       29.95F HX  93
GLASGOW        CLOUDY    90  69  49 SW7       29.94F HX  94
$$

KYZ024-025-028>034-038-045-046-053-232200-
NORTH CENTRAL KENTUCKY

CITY           SKY/WX    TMP DP  RH WIND       PRES   REMARKS
LOUISVILLE/SDF PTSUNNY   87  69  54 NW8       29.96F HX  91
LOUISVILLE/LOU PTSUNNY   85  68  56 NW7       29.97F
FORT KNOX      PTSUNNY   85  72  66 W8        29.96F HX  90
$$

KYZ035>037-039>044-047>052-055>060-089>105-232200-
NORTHEAST KENTUCKY

CITY           SKY/WX    TMP DP  RH WIND       PRES   REMARKS
LEXINGTON      PTSUNNY   86  69  56 W10       29.99S HX  90
COVINGTON      PTSUNNY   83  71  67 W8        29.98F
FRANKFORT      PTSUNNY   83  70  64 W5        29.97F
$$

KYZ054-064>069-076>088-106>120-232200-
SOUTHEAST KENTUCKY

CITY           SKY/WX    TMP DP  RH WIND       PRES   REMARKS
JACKSON        PTSUNNY   82  72  71 VRB5      29.99F
LONDON         PTSUNNY   82  70  66 S6        30.01S
SOMERSET       MOSUNNY   88  64  45 SW5       29.99R
MIDDLESBORO    LGT RAIN  75  69  79 E3        30.07S
MONTICELLO     MOCLDY    90  71  53 S9        29.99S HX  96
$$




USA.gov is the U.S. government's official web portal to all federal, state and local government web resources and services.